Temp
9 9 9 9 9 8 8 9 8 8 8 8 8 8 7 7 7 8 8 8 7 7 7 8 8 8 8 8 8 8 7 8 8 7 8 7 7 8 8 7 7 7 7
9 9 9 9 8 8 9 9 9 8 8 8 8 8 8 7 7 8 8 8 7 7 7 7 7 7 8 8 8 8 7 7 7 8 7 7 7 7 8 7 7 7 7
9 9 8 8 8 8 9 9 8 8 8 8 8 8 7 8 8 8 8 8 7 7 7 7 7 7 7 8 8 7 8 7 7 7 7 7 7 7 7 7 7 7 7
8 8 8 8 8 8 8 8 8 8 8 8 8 8 7 8 8 8 8 8 7 7 7 7 7 7 7 7 7 7 8 8 7 7 7 7 7 7 7 7 7 7 7
9 9 8 8 8 8 8 8 8 8 8 8 7 7 7 7 8 8 8 7 7 7 7 7 6 6 7 7 7 7 7 7 7 7 7 7 7 7 7 7 7 7 7
8 8 8 8 8 8 8 8 8 8 8 8 7 7 7 7 7 8 7 7 7 7 6 6 6 6 6 7 7 7 7 7 7 7 7 7 7 7 7 7 6 6 6
7 7 7 7 7 7 7 7 8 8 7 7 7 7 7 7 7 7 7 7 7 6 6 6 6 6 6 6 7 7 7 7 7 7 7 7 7 7 7 7 6 6 6
6 6 6 7 7 7 7 7 7 7 7 7 7 7 7 7 7 7 7 7 7 6 6 6 6 6 6 6 6 6 6 6 6 7 6 7 6 6 6 6 6 6 6
6 6 6 6 5 6 6 6 6 7 6 6 6 7 7 7 7 7 6 6 6 6 6 5 6 6 6 6 6 6 6 6 6 6 6 6 6 6 6 6 5 5 5
6 6 6 6 6 6 5 6 6 6 6 6 6 6 6 6 6 6 7 6 6 6 5 5 5 5 5 5 6 6 6 6 6 6 6 6 6 6 6 5 5 5 5
6 6 6 6 6 6 6 5 5 5 6 6 6 6 6 6 6 6 6 6 6 6 5 5 5 5 5 5 5 5 6 5 6 5 6 6 6 6 5 5 4 5 5
5 5 5 5 6 6 6 6 5 5 5 5 6 6 6 6 6 6 6 6 6 6 5 5 5 5 5 5 5 5 5 5 5 5 5 6 5 5 5 5 5 5 4
4 5 5 5 5 5 5 5 5 5 5 5 5 5 5 5 5 6 5 6 6 6 5 5 5 5 5 5 4 5 5 5 5 5 5 5 5 4 5 5 5 5 5
2 3 4 4 5 5 4 4 5 4 4 4 4 4 5 5 5 5 5 5 6 6 5 5 5 4 4 4 4 4 5 5 5 5 5 5 5 5 4 5 5 5 5
1 1 2 3 4 4 4 4 4 4 4 4 4 4 4 5 5 5 5 5 5 5 6 5 5 5 4 4 4 4 4 4 5 4 4 4 5 4 4 4 5 5 4
2 1 1 2 1 2 3 2 4 4 4 5 4 4 4 4 4 5 5 5 5 5 5 5 5 5 4 3 4 4 4 4 4 4 4 4 4 4 4 4 4 4 4
-0 0 1 1 1 2 1 2 2 3 4 4 5 4 3 4 4 4 5 5 5 5 5 5 5 5 4 4 3 4 4 4 4 4 4 4 4 4 4 4 4 3 3
-1 -0 -0 0 0 1 1 1 2 4 3 3 4 5 4 3 4 4 5 5 5 5 5 5 4 4 4 4 4 4 4 4 3 4 4 4 4 4 4 4 4 3 3
-2 -2 -1 -1 -0 -0 0 0 1 2 3 3 3 3 4 3 3 4 4 5 5 5 5 5 4 4 3 3 4 3 4 3 4 3 4 5 4 4 4 4 3 3 3
-6 -4 -3 -1 -1 -0 -0 -0 1 1 3 3 3 3 3 3 3 3 4 4 5 5 5 5 4 3 3 3 3 3 3 3 4 3 4 4 4 2 3 3 3 3 3
-7 -7 -5 -4 -3 -2 -1 -1 -0 1 2 1 1 2 2 3 3 2 3 4 5 5 5 5 3 4 3 3 3 3 3 3 4 4 3 3 2 3 3 3 3 2 3
-8 -8 -7 -6 -6 -6 -5 -4 -1 -0 0 0 1 2 1 2 3 2 2 3 4 5 5 4 3 3 4 3 3 3 3 3 3 4 3 3 3 3 3 3 3 3 2
-10 -9 -8 -7 -7 -7 -5 -4 -3 -2 -1 -0 1 1 1 2 1 2 2 3 4 4 4 3 3 3 4 3 3 3 3 3 2 3 3 3 2 3 3 2 3 3 2
-11 -10 -9 -8 -8 -8 -6 -4 -3 -3 -1 -1 0 1 1 0 0 2 2 2 3 4 3 3 2 3 3 3 3 3 3 3 3 3 2 3 2 2 2 2 3 2 2
-12 -11 -11 -10 -9 -9 -8 -7 -4 -3 -2 -2 -1 1 0 0 1 0 1 2 3 3 2 3 3 3 3 3 2 3 3 2 2 2 2 2 2 1 2 2 2 2 2
-13 -12 -12 -12 -10 -10 -9 -9 -8 -6 -3 -2 -2 -1 0 -0 -0 -0 0 2 2 2 2 2 3 2 2 2 2 2 3 2 2 2 1 1 1 2 2 2 1 1 1
Height
3138 3139 3139 3140 3140 3140 3140 3139 3138 3138 3138 3138 3138 3139 3140 3141 3143 3144 3145 3146 3147 3149 3152 3154 3156 3157 3158 3159 3160 3160 3162 3164 3164 3165 3167 3169 3171 3171 3173 3175 3175 3177 3178
3137 3138 3139 3139 3140 3140 3140 3139 3138 3138 3138 3138 3138 3138 3139 3140 3141 3143 3143 3145 3146 3148 3150 3152 3154 3155 3157 3159 3159 3160 3161 3162 3164 3165 3166 3168 3171 3172 3174 3176 3177 3179 3180
3137 3138 3139 3139 3140 3140 3139 3138 3138 3137 3138 3138 3138 3138 3138 3139 3140 3141 3141 3143 3144 3146 3149 3150 3152 3154 3156 3158 3159 3159 3160 3161 3163 3165 3166 3168 3170 3172 3174 3176 3178 3179 3181
3138 3139 3139 3139 3139 3139 3139 3138 3137 3137 3138 3137 3138 3138 3138 3138 3138 3139 3140 3141 3142 3145 3147 3149 3151 3152 3154 3156 3157 3158 3160 3161 3162 3163 3165 3168 3170 3172 3174 3176 3178 3179 3181
3138 3137 3139 3139 3138 3138 3138 3138 3137 3137 3137 3136 3137 3137 3137 3138 3138 3138 3139 3139 3141 3143 3145 3147 3149 3151 3152 3154 3156 3157 3158 3160 3162 3163 3165 3167 3169 3171 3173 3175 3177 3179 3181
3135 3136 3137 3137 3137 3136 3136 3136 3136 3135 3135 3135 3135 3136 3136 3136 3136 3136 3137 3138 3140 3141 3143 3145 3147 3149 3151 3152 3154 3156 3157 3159 3161 3162 3164 3166 3168 3170 3172 3174 3177 3179 3181
3134 3135 3135 3134 3134 3134 3134 3134 3133 3133 3133 3133 3134 3134 3134 3134 3134 3135 3135 3136 3138 3140 3141 3143 3145 3147 3149 3151 3153 3154 3156 3158 3160 3162 3162 3164 3166 3169 3170 3172 3175 3178 3180
3121 3124 3128 3130 3130 3131 3131 3131 3132 3132 3132 3132 3132 3131 3131 3132 3132 3133 3133 3134 3135 3138 3139 3141 3143 3145 3147 3149 3151 3153 3155 3156 3158 3160 3162 3163 3165 3168 3170 3172 3174 3176 3179
3119 3118 3118 3117 3121 3124 3126 3127 3128 3129 3129 3129 3129 3129 3129 3129 3130 3130 3131 3132 3134 3135 3137 3139 3140 3142 3144 3147 3149 3151 3153 3155 3156 3158 3160 3163 3164 3166 3168 3170 3172 3174 3176
3114 3114 3114 3114 3114 3114 3118 3122 3124 3125 3125 3126 3126 3126 3126 3126 3127 3127 3128 3129 3131 3133 3134 3136 3138 3139 3141 3144 3147 3149 3151 3152 3154 3156 3159 3161 3163 3163 3165 3168 3170 3172 3175
3109 3109 3109 3110 3110 3111 3112 3114 3118 3120 3121 3122 3122 3123 3123 3124 3124 3125 3125 3126 3128 3130 3131 3133 3135 3136 3138 3141 3144 3146 3148 3150 3152 3153 3156 3159 3160 3162 3163 3165 3169 3171 3173
3104 3105 3104 3105 3105 3106 3107 3107 3111 3114 3115 3116 3118 3119 3120 3120 3120 3121 3121 3123 3124 3126 3128 3130 3132 3133 3136 3138 3141 3143 3145 3147 3150 3151 3154 3157 3158 3161 3161 3162 3164 3167 3170
3097 3098 3098 3100 3101 3101 3102 3103 3104 3107 3109 3111 3112 3113 3115 3116 3117 3117 3117 3119 3120 3122 3124 3126 3127 3130 3133 3135 3138 3140 3142 3144 3147 3148 3151 3154 3156 3158 3160 3159 3159 3162 3166
3092 3093 3093 3094 3095 3096 3097 3098 3099 3099 3102 3105 3107 3108 3110 3110 3112 3113 3114 3115 3116 3117 3119 3121 3123 3126 3129 3131 3134 3136 3137 3140 3142 3145 3148 3150 3154 3158 3160 3144 3151 3158 3162
3084 3085 3086 3087 3088 3089 3091 3092 3094 3094 3095 3098 3100 3102 3104 3105 3106 3107 3109 3110 3112 3112 3114 3116 3118 3121 3124 3127 3129 3131 3133 3136 3139 3142 3144 3147 3151 3151 3127 3123 3139 3152 3159
3076 3078 3078 3079 3079 3081 3083 3085 3087 3089 3091 3092 3093 3095 3097 3099 3101 3102 3103 3104 3106 3108 3110 3111 3113 3116 3119 3122 3124 3126 3128 3132 3136 3138 3140 3144 3147 3147 3144 3147 3151 3154 3159
3064 3066 3068 3071 3070 3072 3075 3078 3079 3083 3084 3086 3087 3088 3090 3093 3095 3096 3097 3098 3101 3102 3104 3106 3108 3111 3113 3116 3119 3121 3124 3127 3131 3133 3136 3139 3144 3146 3147 3151 3151 3156 3159
3052 3053 3055 3057 3060 3062 3066 3068 3071 3074 3077 3079 3081 3082 3083 3086 3089 3090 3091 3093 3094 3096 3098 3100 3102 3105 3108 3111 3114 3117 3119 3123 3127 3128 3132 3133 3140 3142 3146 3149 3152 3156 3160
3039 3040 3041 3042 3046 3050 3054 3058 3060 3066 3068 3070 3072 3075 3076 3079 3082 3084 3085 3086 3088 3090 3092 3094 3096 3100 3103 3107 3110 3114 3116 3118 3122 3124 3127 3125 3135 3138 3144 3147 3152 3156 3160
3030 3029 3029 3030 3031 3035 3040 3045 3051 3055 3058 3062 3066 3068 3069 3072 3074 3077 3078 3079 3081 3083 3085 3087 3090 3095 3098 3104 3106 3109 3113 3115 3117 3122 3121 3126 3129 3135 3142 3145 3148 3153 3157
3020 3021 3018 3019 3019 3021 3024 3030 3037 3043 3048 3052 3055 3058 3060 3063 3066 3069 3071 3072 3074 3077 3079 3082 3086 3090 3094 3097 3102 3101 3109 3113 3113 3114 3120 3123 3129 3132 3137 3142 3146 3150 3155
3013 3012 3011 3009 3008 3010 3013 3016 3021 3029 3036 3041 3044 3046 3051 3054 3057 3060 3063 3065 3067 3070 3072 3075 3079 3084 3087 3091 3094 3100 3104 3108 3111 3112 3116 3120 3123 3128 3133 3139 3142 3147 3152
3007 3005 3003 3001 2999 3000 3003 3006 3007 3014 3022 3028 3031 3037 3041 3043 3047 3050 3054 3058 3060 3063 3066 3070 3073 3078 3081 3084 3088 3094 3095 3098 3105 3110 3112 3117 3124 3126 3130 3135 3139 3144 3147
2999 2997 2995 2993 2992 2992 2992 2994 2995 2999 3008 3010 3018 3025 3030 3034 3038 3042 3046 3050 3053 3056 3059 3064 3068 3072 3074 3078 3084 3089 3090 3096 3098 3103 3108 3113 3117 3122 3126 3131 3135 3139 3143
2992 2989 2986 2983 2984 2984 2983 2983 2984 2985 2989 2996 3003 3012 3017 3019 3027 3033 3037 3042 3045 3048 3053 3057 3062 3067 3071 3074 3080 3085 3092 3093 3098 3103 3106 3108 3113 3116 3120 3122 3128 3132 3136
2988 2984 2980 2977 2974 2973 2974 2975 2975 2973 2977 2979 2986 2998 3005 3011 3019 3022 3027 3032 3037 3042 3046 3051 3054 3059 3065 3071 3074 3080 3085 3088 3093 3098 3099 3104 3109 3112 3114 3119 3124 3128 3130
Wind_Speed
7 9 11 8 7 9 9 9 9 8 8 9 10 10 11 12 12 12 11 10 8 8 9 9 9 9 9 9 8 7 6 8 9 9 10 9 9 8 9 11 10 11 12
12 11 11 7 6 10 10 10 9 9 8 9 9 10 11 11 12 12 12 12 10 10 10 11 11 11 10 10 10 9 8 8 10 11 11 11 11 10 11 11 11 12 12
8 8 7 7 8 8 11 11 10 9 9 9 9 10 11 11 11 12 12 12 11 12 12 13 12 12 11 12 12 12 11 10 10 11 11 12 11 12 13 12 12 13 13
2 4 6 8 7 11 12 12 10 10 10 10 11 10 10 10 10 11 11 11 12 14 15 15 13 13 13 14 14 13 12 11 11 10 11 12 13 14 14 13 13 14 14
14 13 10 11 12 15 15 14 11 11 11 11 12 11 10 10 10 11 10 11 12 14 15 14 13 13 14 15 15 14 14 13 12 11 10 12 13 14 15 13 14 15 15
7 8 13 13 14 15 15 15 13 12 13 13 12 12 11 11 10 12 11 11 13 15 14 13 13 14 14 15 16 15 15 13 12 12 11 12 14 16 16 14 17 17 17
6 10 14 15 16 17 17 16 15 14 14 14 14 13 12 12 11 12 12 12 13 16 15 14 13 14 15 15 16 17 16 14 13 13 12 13 14 16 17 19 18 18 18
16 15 15 15 16 16 14 14 16 17 16 16 15 15 13 13 13 13 13 13 13 16 15 15 14 15 16 16 16 16 16 14 13 13 12 13 15 16 18 20 19 20 20
20 21 20 17 14 15 16 17 19 20 20 19 18 17 15 14 14 14 13 14 15 15 15 16 15 16 17 17 17 16 15 13 13 13 13 14 15 16 20 22 22 23 24
25 26 24 24 22 19 17 18 19 23 22 20 19 19 18 17 16 16 16 16 17 17 16 16 17 18 18 18 18 18 18 18 18 15 15 15 16 18 22 24 24 25 25
28 28 31 31 27 26 23 20 21 25 24 23 22 21 19 18 18 17 17 17 18 18 18 18 18 20 19 19 19 19 20 19 16 17 16 17 18 20 23 24 25 26 26
30 30 30 30 31 31 27 25 24 26 26 25 24 23 21 20 20 19 19 20 20 21 20 20 21 21 21 20 19 19 19 18 19 22 18 18 19 20 24 26 29 30 30
31 32 33 33 33 33 29 28 27 28 28 28 26 25 23 22 22 22 22 22 22 22 22 23 24 21 22 22 22 21 19 20 22 19 21 21 22 22 26 31 35 34 32
30 32 34 34 35 35 33 31 32 31 32 31 29 28 27 25 24 24 23 23 23 24 24 25 24 24 23 23 24 23 21 24 25 22 23 25 24 20 25 44 42 40 36
32 34 36 36 38 39 37 36 34 35 36 35 35 34 32 29 26 26 25 25 25 26 25 25 25 25 25 23 24 24 24 26 26 25 25 26 23 23 7 24 20 29 33
41 38 38 39 40 41 43 40 39 37 36 38 37 35 34 31 29 28 27 27 26 26 26 26 26 25 26 26 25 25 25 24 20 27 30 28 25 25 29 14 15 22 22
47 46 45 43 42 40 38 41 46 39 36 35 36 36 35 33 31 30 29 29 28 27 27 28 27 27 27 27 26 27 26 25 23 24 28 28 27 25 18 24 26 18 21
56 55 52 50 47 45 44 46 48 40 39 36 33 36 36 35 33 31 31 30 29 29 29 30 29 28 28 28 26 25 25 24 25 27 32 30 33 29 28 33 23 24 29
50 52 55 57 54 50 46 46 41 44 42 37 35 38 38 37 34 33 31 31 31 31 30 30 29 28 28 28 26 28 27 24 26 26 31 42 35 36 33 31 25 28 27
40 46 49 50 55 55 53 50 52 47 45 42 40 36 37 38 36 35 32 32 33 33 32 31 28 31 23 23 28 29 29 24 25 28 40 46 43 22 24 34 34 26 27
42 39 39 45 46 49 51 51 51 52 48 45 41 46 37 41 39 36 34 34 34 33 32 32 29 28 26 28 26 37 30 28 31 32 35 32 38 22 28 29 28 19 19
35 38 37 38 40 45 44 48 53 53 48 49 47 48 50 45 44 39 36 35 35 33 32 32 26 31 29 29 31 34 33 39 36 40 28 35 43 39 33 37 27 19 23
31 31 33 37 38 39 41 44 50 50 52 51 52 49 48 49 45 42 37 36 34 33 32 29 32 27 33 37 37 28 41 54 41 39 45 47 38 31 32 25 31 24 33
32 32 33 36 34 38 40 47 42 53 50 54 49 49 49 56 53 44 40 37 35 33 33 30 28 28 26 30 28 21 54 34 43 54 50 46 45 36 32 29 35 28 32
25 27 30 31 40 32 31 33 51 39 63 62 61 54 59 42 37 47 43 38 36 33 31 29 36 32 32 31 30 28 44 37 43 42 40 38 44 42 39 36 34 33 35
28 28 27 29 32 37 40 39 30 41 52 50 60 57 58 56 57 42 44 41 35 34 35 32 27 38 32 32 31 25 35 29 35 36 46 45 48 47 39 32 29 32 29
Wind_Direction
253 270 289 297 287 313 306 325 321 306 293 291 288 277 270 264 262 259 254 246 228 217 212 210 204 200 203 211 220 216 194 186 194 201 197 189 179 168 166 165 160 155 149
258 264 278 275 277 305 313 318 319 311 292 290 288 278 270 266 263 261 254 248 234 223 218 214 209 207 206 214 217 217 219 210 196 204 208 202 190 179 176 169 168 166 165
258 258 263 229 277 294 321 319 311 310 295 288 281 278 270 265 262 260 257 250 239 232 227 221 214 212 209 213 216 220 222 219 211 202 207 208 199 190 183 174 176 172 172
293 261 243 259 267 303 316 327 309 306 300 288 279 277 269 263 261 263 262 255 246 238 231 226 220 218 214 214 219 224 229 225 222 213 206 206 203 196 190 189 184 180 177
285 288 274 271 277 293 294 312 305 296 297 290 277 273 273 264 264 263 261 253 248 241 234 230 223 221 219 218 223 225 229 230 229 222 216 203 202 195 194 197 192 188 181
284 265 228 241 271 284 292 299 290 284 287 288 281 271 270 265 264 264 256 252 249 244 234 230 223 222 220 219 224 230 234 235 231 226 215 212 199 204 204 210 201 194 188
258 244 244 260 276 287 291 288 275 269 273 280 282 268 267 265 263 266 260 253 248 245 235 230 226 227 228 223 224 227 232 236 232 227 216 209 211 209 201 202 203 197 191
218 225 255 264 281 284 283 280 269 267 268 275 276 268 266 261 261 264 260 256 249 245 237 232 225 227 231 227 228 230 230 230 229 230 225 214 212 210 203 204 203 197 194
230 233 229 226 247 270 276 280 272 265 267 270 268 267 262 256 256 259 253 250 246 242 237 233 227 225 227 229 230 231 225 227 231 233 228 223 216 212 207 204 202 197 196
239 243 240 236 239 232 250 270 266 259 259 263 265 264 260 251 252 253 249 243 240 239 237 233 230 226 225 228 230 232 234 234 238 233 228 221 220 215 212 206 202 201 200
240 246 246 248 246 243 241 241 246 249 253 259 265 269 266 261 257 253 250 242 238 238 237 235 234 231 228 227 229 231 233 235 234 224 223 224 218 217 218 210 203 202 202
245 247 246 243 241 242 242 234 234 240 245 251 258 266 266 262 255 250 247 242 238 238 235 233 235 236 232 227 228 229 232 230 237 234 235 232 223 219 222 215 207 202 198
240 243 248 248 243 242 238 236 229 233 239 245 252 258 262 261 257 252 246 242 241 241 238 235 237 241 236 232 229 230 233 235 233 237 233 230 224 218 223 217 214 197 197
248 245 244 243 242 243 241 240 234 229 235 241 248 252 257 256 253 250 248 244 241 242 242 239 240 239 238 235 232 230 230 233 228 239 226 230 230 227 232 202 211 200 195
254 251 247 243 243 244 243 243 239 237 233 238 244 250 252 253 249 247 247 245 243 243 244 243 241 241 237 234 233 231 226 230 237 231 224 227 226 227 132 160 186 197 202
253 253 255 252 248 246 247 251 243 244 244 241 244 247 247 247 247 246 246 244 243 244 245 244 241 241 237 235 234 231 227 235 235 226 224 221 226 229 240 228 174 188 196
265 262 257 256 260 249 248 237 250 246 246 247 246 244 242 242 243 244 245 244 243 243 243 245 241 238 236 232 230 229 229 231 231 232 226 222 222 209 213 200 219 218 192
267 263 262 259 256 256 251 243 247 247 244 247 248 245 239 238 240 242 244 246 243 242 243 244 239 236 232 230 225 226 228 222 226 238 227 219 218 199 198 208 209 190 171
269 266 263 260 258 256 250 245 242 244 245 240 242 241 239 235 238 240 242 245 244 244 243 242 239 227 229 231 228 228 219 226 241 225 219 205 211 210 197 190 186 186 186
281 273 269 263 258 255 254 248 247 243 246 246 243 237 240 236 237 240 241 242 243 243 243 240 233 222 225 235 225 222 223 226 222 202 183 210 200 189 197 194 180 194 199
292 290 283 273 261 256 252 247 245 236 240 240 239 238 242 236 237 238 241 240 242 242 241 235 229 222 226 230 224 219 220 220 194 177 179 189 192 206 197 199 202 194 203
293 286 286 282 277 262 258 254 243 234 235 239 241 243 240 242 236 236 238 240 240 241 240 235 220 221 216 221 223 222 215 210 220 202 214 197 198 192 186 203 199 218 206
288 281 278 278 273 261 254 249 248 241 234 239 236 239 240 239 236 231 233 238 238 238 235 229 222 215 222 242 220 230 221 197 204 202 187 196 198 195 186 212 219 216 209
284 272 274 272 279 265 256 236 238 235 233 221 231 235 240 219 236 233 229 233 236 235 227 218 210 220 218 242 210 230 203 232 215 199 203 197 204 206 224 229 214 226 217
308 291 277 269 267 271 274 264 236 235 227 231 234 230 230 216 232 231 229 229 232 226 222 210 204 207 222 237 217 226 219 225 229 221 205 205 225 238 241 209 222 222 223
313 310 302 289 274 272 276 273 277 247 232 219 219 222 225 238 232 230 231 226 228 214 210 210 211 207 216 223 220 224 226 227 214 230 235 247 247 238 215 212 240 226 214